Location: Unspecified
(0.0000°N, 0.0000°E)
Time: 04:05:20
(UTC+00:00)

Tiangong 1 - Visible Passes

Search period start: 17 October 2017 00:00
Search period end: 27 October 2017 00:00
Orbit: 294 x 321 km, 42.8° (Epoch: 16 October)

Date Brightness Start Highest point End Pass type
(mag) Time Alt. Az. Time Alt. Az. Time Alt. Az.
22 Oct 4.3 19:32:33 10° W 19:32:55 12° W 19:32:55 12° W visible
23 Oct 0.8 18:06:56 10° NNW 18:09:31 49° NE 18:12:05 10° ESE visible
24 Oct 2.7 18:17:05 10° WNW 18:19:28 29° SW 18:21:51 10° SSE visible
